Location: Hartford
(41.7640°N, 72.6860°W)
Time: 20:20:04
(UTC-04:00)

ISS - Visible Passes

Search period start: 01 October 2014 00:00
Search period end: 11 October 2014 00:00
Orbit: 413 x 416 km, 51.6° (Epoch: 01 October)

Date Brightness Start Highest point End Pass type
(mag) Time Alt. Az. Time Alt. Az. Time Alt. Az.
01 Oct 0.1 04:05:26 10° E 04:05:26 10° E 04:05:28 10° E visible
01 Oct -2.2 05:38:21 25° WSW 05:38:54 27° SW 05:41:45 10° SSE visible
02 Oct -1.0 04:52:11 17° SSE 04:52:11 17° SSE 04:53:06 10° SE visible
05 Oct -0.5 20:37:39 10° SW 20:38:12 14° SW 20:38:12 14° SW visible
06 Oct -2.7 19:48:40 10° SSW 19:51:40 39° SE 19:51:40 39° SE visible
07 Oct -1.9 19:00:00 10° S 19:02:40 22° SE 19:04:56 12° E visible
07 Oct -1.2 20:35:57 10° WSW 20:37:49 28° W 20:37:49 28° W visible
08 Oct -3.2 19:46:32 10° WSW 19:49:51 76° NW 19:50:54 40° NE visible
09 Oct -3.2 18:57:17 10° SW 19:00:34 62° SE 19:03:51 10° ENE visible
09 Oct -0.9 20:34:39 10° WNW 20:36:42 23° NW 20:36:42 23° NW visible
10 Oct -1.9 19:44:56 10° W 19:48:00 34° NNW 19:49:31 22° NNE visible
